sat.trackr.live / text

‹ back to catalog

SHIYAN-29

NORAD 65486 · 2025-196A

PAYLOAD ACTIVE UNKNOWN

§ Identity

Operator
Country
PRC
Launch date
2025-09-05
Launch site
XICLF
Launch vehicle
Mass (kg)
RCS (m²)

Purposes: comms

External: N2YO · Heavens-Above · Gunter

§ Orbital elements

Epoch: 2026-09-19T20:18:44.426592Z

Period
1,435.88 min
Inclination
28.9214°
Eccentricity
0.0015671
Mean motion
1.00286753 rev/d
Perigee alt
35,716.3 km
Apogee alt
35,848.5 km
Semi-major
42,160.5 km
B*
0.0000e+0
RAAN
17.3454°
Arg perigee
175.7428°
Mean anomaly
205.1419°
Rev number
383

§ Raw data

SHIYAN-291 65486U 25196A   26262.84634753 -.00000267  00000+0  00000+0 0  99942 65486  28.9214  17.3454 0015671 175.7428 205.1419  1.00286753  3833

JSON: /api/v1/satellites/65486 · /tle

For live sub-satellite position, see the globe view (requires WebGL).

§ Visibility from observer

Set your observer location to see the next 7 days of passes ≥ 10°. The values pass through the URL so the page stays shareable.

No JS? Fill the form by hand. The geolocation button needs JavaScript.